Location: Wildlife_Club
(35.6000°N, 81.4330°W)
Time: 12:36:23
(UTC-04:00)

A-11 Canister half - All Passes

Search period start: 16 June 2019 00:00
Search period end: 26 June 2019 00:00
Orbit: 1525 x 1684 km, 47.3° (Epoch: 15 June)

Date Brightness Start Highest point End Pass type
(mag) Time Alt. Az. Time Alt. Az. Time Alt. Az.
16 Jun - 04:48:14 10° S 04:55:02 22° SE 05:01:43 10° E visible
16 Jun - 06:49:35 10° SW 06:59:02 80° SE 07:08:20 10° ENE daylight
16 Jun - 08:55:41 10° W 09:04:38 48° NNW 09:13:33 10° ENE daylight
16 Jun - 11:02:43 10° WNW 11:11:26 42° N 11:20:14 10° ENE daylight
16 Jun - 13:08:13 10° NW 13:17:35 77° NNE 13:27:10 10° ESE daylight
16 Jun - 15:13:48 10° WNW 15:22:05 36° SW 15:30:36 10° SSE daylight
17 Jun - 04:26:58 10° S 04:33:28 21° SE 04:39:52 10° E visible
17 Jun - 06:27:58 10° SW 06:37:25 77° SE 06:46:42 10° ENE daylight
17 Jun - 08:33:57 10° W 08:42:57 49° NNW 08:51:54 10° NE daylight
17 Jun - 10:41:03 10° WNW 10:49:44 42° N 10:58:30 10° ENE daylight
17 Jun - 12:46:36 10° NW 12:55:57 74° NNE 13:05:29 10° ESE daylight
17 Jun - 14:52:06 10° WNW 15:00:31 39° SW 15:09:09 10° SSE daylight
18 Jun - 04:05:45 10° SSE 04:11:55 19° SE 04:18:00 10° E visible
18 Jun - 06:06:22 10° SW 06:15:49 74° SE 06:25:04 10° ENE daylight
18 Jun - 08:12:14 10° W 08:21:16 50° NNW 08:30:15 10° NE daylight
18 Jun - 10:19:21 10° WNW 10:28:02 41° N 10:36:46 10° ENE daylight
18 Jun - 12:24:59 10° NW 12:34:18 71° NNE 12:43:47 10° ESE daylight
18 Jun - 14:30:25 10° WNW 14:38:56 41° SW 14:47:41 10° SSE daylight
19 Jun - 03:44:33 10° SSE 03:50:22 18° SE 03:56:06 10° E visible
19 Jun - 05:44:47 10° SW 05:54:12 70° SE 06:03:27 10° ENE daylight
19 Jun - 07:50:30 10° W 07:59:36 51° NNW 08:08:36 10° NE daylight
19 Jun - 09:57:40 10° WNW 10:06:20 41° N 10:15:02 10° ENE daylight
19 Jun - 12:03:22 10° NW 12:12:39 69° NNE 12:22:06 10° ESE daylight
19 Jun - 14:08:44 10° WNW 14:17:21 43° SW 14:26:12 10° SSE daylight
20 Jun - 03:23:25 10° SSE 03:28:49 17° SE 03:34:09 10° E visible
20 Jun - 05:23:11 10° SW 05:32:36 67° SE 05:41:48 10° ENE visible
20 Jun - 07:28:46 10° W 07:37:55 53° NNW 07:46:58 10° NE daylight
20 Jun - 09:35:58 10° WNW 09:44:38 41° N 09:53:18 10° ENE daylight
20 Jun - 11:41:44 10° NW 11:51:01 66° NNE 12:00:25 10° ESE daylight
20 Jun - 13:47:03 10° WNW 13:55:46 46° SW 14:04:42 10° SSE daylight
21 Jun - 03:02:19 10° SSE 03:07:16 15° ESE 03:12:08 10° E visible
21 Jun - 05:01:36 10° SW 05:11:00 64° SE 05:20:10 10° ENE visible
21 Jun - 07:07:03 10° W 07:16:14 54° NNW 07:25:20 10° NE daylight
21 Jun - 09:14:16 10° WNW 09:22:55 40° N 09:31:34 10° ENE daylight
21 Jun - 11:20:07 10° NW 11:29:21 64° NNE 11:38:42 10° ESE daylight
21 Jun - 13:25:24 10° WNW 13:34:11 48° SW 13:43:12 10° SSE daylight
22 Jun - 02:41:19 10° SSE 02:45:43 14° ESE 02:50:03 10° E visible
22 Jun - 04:40:03 10° SW 04:49:24 61° SE 04:58:32 10° ENE visible
22 Jun - 06:45:19 10° W 06:54:34 56° NNW 07:03:41 10° NE daylight
22 Jun - 08:52:33 10° WNW 09:01:13 40° N 09:09:51 10° ENE daylight
22 Jun - 10:58:29 10° NW 11:07:42 62° NNE 11:17:00 10° ESE daylight
22 Jun - 13:03:44 10° WNW 13:12:37 51° SW 13:21:40 10° SSE daylight
23 Jun - 02:20:26 10° SE 02:24:10 13° ESE 02:27:50 10° E visible
23 Jun - 04:18:29 10° SSW 04:27:48 58° SE 04:36:53 10° ENE visible
23 Jun - 06:23:36 10° WSW 06:32:54 58° NNW 06:42:04 10° NE daylight
23 Jun - 08:30:50 10° WNW 08:39:30 40° N 08:48:08 10° ENE daylight
23 Jun - 10:36:51 10° NW 10:46:03 60° NNE 10:55:18 10° ESE daylight
23 Jun - 12:42:05 10° WNW 12:51:01 54° SW 13:00:08 10° SSE daylight
23 Jun - 14:52:25 10° WSW 14:54:34 11° WSW 14:56:43 10° SW daylight
24 Jun - 01:59:46 10° SE 02:02:36 12° ESE 02:05:25 10° ESE visible
24 Jun - 03:56:55 10° SSW 04:06:12 55° SE 04:15:14 10° ENE visible
24 Jun - 06:01:52 10° WSW 06:11:14 60° NNW 06:20:26 10° NE daylight
24 Jun - 08:09:07 10° WNW 08:17:48 40° N 08:26:25 10° ENE daylight
24 Jun - 10:15:13 10° NW 10:24:23 58° NNE 10:33:36 10° ESE daylight
24 Jun - 12:20:26 10° WNW 12:29:26 57° SW 12:38:35 10° SSE daylight
24 Jun - 14:29:49 10° WSW 14:33:01 12° WSW 14:36:15 10° SW daylight
25 Jun - 01:39:38 10° SE 01:41:03 10° ESE 01:42:29 10° ESE visible
25 Jun - 03:35:23 10° SSW 03:44:37 52° SE 03:53:35 10° ENE visible
25 Jun - 05:40:09 10° WSW 05:49:34 62° NNW 05:58:48 10° NE visible
25 Jun - 07:47:23 10° WNW 07:56:05 40° N 08:04:43 10° ENE daylight
25 Jun - 09:53:35 10° NW 10:02:43 56° NNE 10:11:53 10° E daylight
25 Jun - 11:58:47 10° WNW 12:07:51 60° SW 12:17:03 10° SSE daylight
25 Jun - 14:07:31 10° W 14:11:28 13° WSW 14:15:28 10° SSW daylight
